Location: Achime?e?ti
(46.3833°N, 22.8000°E)
Time: 08:45:32
(UTC+00:00)

Daily predictions for brighter satellites

Satellite Brightness Start Highest point End
(mag) Time Altitude Azimuth Time Altitude Azimuth Time Altitude Azimuth
YAOGAN 1 3.1 16:37:52 10° SE 16:41:51 38° ENE 16:45:52 10° N
Cosmos 841 Rocket 4.2 16:38:23 10° N 16:43:04 33° ENE 16:47:42 10° ESE
SKYMED 2 3.6 16:39:07 10° NNE 16:43:29 82° ESE 16:47:50 10° SSW
In-Cosmos 22 4.2 16:39:51 10° NNW 16:45:11 83° W 16:50:27 10° S
SL-4 R/B 3.1 16:42:40 10° WNW 16:46:51 42° N 16:51:17 10° ENE
Cosmos 1190 Rocket 4.5 16:43:03 10° SSW 16:48:14 67° WNW 16:53:26 10° NNE
Cosmos 2279 Rocket 4.1 16:42:14 10° N 16:48:24 55° ENE 16:54:31 10° SSE
Cosmos 1954 Rocket 4.0 16:43:18 10° SSW 16:48:28 85° ESE 16:53:40 10° NNE
Meteor 1-21 4.4 16:44:58 10° NNW 16:50:44 82° W 16:56:24 10° S
Cosmos 1763 Rocket 3.5 16:47:08 10° NNW 16:52:14 89° NE 16:57:19 10° SSE
Cosmos 1634 Rocket 4.0 16:46:38 10° N 16:52:50 89° ENE 16:59:02 10° S
NOSS 3-1 (A) 4.2 16:45:34 10° NW 16:53:03 87° SW 17:01:55 10° SE
OBJECT-B 2.4 16:54:33 11° ENE 16:55:01 11° ENE 16:55:52 10° NE
Aureole 1 4.4 16:53:05 10° S 16:55:57 46° ESE 16:59:06 10° NNE
Cosmos 2219 3.4 16:50:41 10° NNW 16:56:28 83° WSW 17:02:14 10° SSE
Cosmos 1869 Rocket 4.2 16:53:03 10° SSW 16:57:29 64° WNW 17:01:57 10° N
Cosmos 2221 Rocket 4.0 16:54:22 10° N 16:58:42 44° ENE 17:03:02 10° SSE
ISS -3.0 16:57:54 10° WNW 17:01:08 41° NNE 17:03:48 14° E
NOSS 2-2 (D) 4.5 16:56:38 10° NW 17:01:38 81° SW 17:08:47 10° SSE
Cosmos 2360 4.3 16:58:07 10° SSW 17:03:51 88° ESE 17:09:37 10° NNE
SL-14 R/B 3.7 17:01:19 10° N 17:05:04 41° ENE 17:08:50 10° SSE
USA 215 4.0 16:59:39 10° NE 17:05:56 51° NNW 17:12:12 10° W
Cosmos 2263 Rocket 2.7 17:01:52 10° NNW 17:07:17 43° NE 17:12:35 10° SE
Cosmos 1741 Rocket 4.3 17:04:32 10° S 17:09:32 44° ESE 17:14:32 10° NNE
HJ-1C 3.1 17:07:05 10° SSE 17:10:10 65° ENE 17:13:16 10° N
Cosmos 1805 3.2 17:08:12 10° S 17:12:00 58° E 17:15:49 10° NNE
Cosmos 1378 Rocket 3.9 17:07:55 10° N 17:12:08 43° ENE 17:16:17 10° SSE
Cosmos 2082 3.7 17:10:23 10° NNW 17:16:09 80° ENE 17:21:53 10° SSE
USA 186 3.1 17:16:11 19° E 17:17:17 23° ENE 17:19:57 10° NNE
IGS 5A 4.5 17:17:10 17° ESE 17:19:22 26° ENE 17:22:49 10° N
Cosmos 1733 Rocket 3.0 17:17:37 10° S 17:22:02 82° E 17:26:31 10° N
ARGOS Delta rocket 4.1 17:16:44 10° N 17:22:09 88° W 17:27:15 10° SSW
Cosmos 1766 3.7 17:20:47 10° SSE 17:24:23 38° E 17:28:04 10° NNE
BREEZE-M DEB (TANK) 4.1 17:20:45 10° SW 17:25:19 73° SSE 17:44:45 10° ENE
Okean-O 3.5 17:23:07 18° ESE 17:25:30 30° ENE 17:29:23 10° N
Cosmos 1697 Rocket 3.2 17:20:25 10° SW 17:25:58 63° WNW 17:31:34 10° NNE
Cosmos 1242 Rocket 2.8 17:24:37 10° SSW 17:28:11 71° WNW 17:31:45 10° N
CSL-04 Debris 4.5 17:24:33 10° SE 17:29:41 46° ENE 17:34:49 10° N
Cosmos 1726 2.0 17:27:07 10° S 17:30:40 58° E 17:34:17 10° NNE
COSMO-SKYMED 1 4.5 17:27:31 10° N 17:31:25 33° WNW 17:35:18 10° SW
Cosmos 2084 3.3 17:33:52 10° SW 17:37:42 74° NW 17:41:31 10° NE
IRIDIUM 106 4.2 17:32:46 10° S 17:37:56 69° E 17:43:08 10° N
Feng Yun 1-1 Rocket 4.3 17:42:40 10° S 17:48:12 77° WSW 17:53:40 10° NNW
Cosmos 2285 Rocket 4.1 17:42:06 10° NNW 17:48:22 58° ENE 17:52:21 23° SE
Cosmos 2227 Rocket 4.3 17:44:58 10° NW 17:49:37 27° WSW 17:54:15 10° SSW
Meteor 2-16 Rocket 4.5 17:43:55 10° S 17:49:52 56° E 17:55:53 10° NNE
Timation 2 Rocket 3.9 17:43:36 10° NNW 17:50:08 87° ENE 17:55:08 17° SSE
Gbstr 26 Del rocket 4.5 17:43:33 10° SW 17:51:04 66° SE 17:57:33 17° ENE
Cosmos 1470 4.4 17:53:20 19° NE 17:53:20 19° NE 17:54:43 10° NNE
Meteor 1-12 Rocket 4.3 17:45:25 10° S 17:51:18 66° E 17:57:18 10° NNE
CZ-4 R/B 2.2 17:48:20 10° S 17:52:24 54° W 17:56:32 10° NNW
Cosmos 2026 Rocket 4.3 17:48:40 10° SSE 17:54:11 40° E 17:59:47 10° NNE
CZ-4B R/B 4.4 17:49:10 10° S 17:54:12 42° W 17:59:23 10° NNW
MINOTAUR IV R/B 4.5 17:50:35 10° SSW 17:55:03 63° ESE 17:59:31 10° NNE
deb Chang Zheng 4 4.2 17:58:36 34° ENE 17:58:36 34° ENE 18:02:09 10° N
Okean O Rocket 2.9 17:55:24 10° S 17:59:29 41° W 18:03:39 10° NNW
Nadezhda 4 Rocket 4.0 17:54:18 10° S 18:00:39 88° E 18:07:01 10° N
CSL-04 Rocket 3.5 17:57:05 20° SSE 18:00:48 73° ENE 18:06:11 10° N
SJ-6B 2.5 18:01:55 46° SSE 18:02:56 81° ENE 18:06:43 10° N
Cosmos 1908 Rocket 3.4 18:00:56 10° S 18:05:16 82° E 18:09:37 10° N
Cosmos 1980 Rocket 2.7 18:00:09 10° SW 18:05:44 61° WNW 18:11:19 10° NNE
JB-3 4.3 18:02:29 10° NNE 18:06:31 58° E 18:06:33 57° ESE
Cosmos 968 Rocket 3.5 18:04:29 10° S 18:09:34 52° ESE 18:14:40 10° NNE
MetOp-A 4.3 18:10:47 33° NE 18:10:47 33° NE 18:13:27 10° N
Cosmos 1782 Rocket 4.0 18:13:45 42° NE 18:13:45 42° NE 18:16:59 10° NNE
Meteor 1-24 Rocket 3.5 18:11:41 10° N 18:16:58 66° ENE 18:18:19 48° SE
Cosmos 2278 3.7 18:13:09 10° SSW 18:18:52 83° WNW 18:24:35 10° NNE
Landsat 5 3.8 18:14:27 10° N 18:18:57 73° WNW 18:23:24 10° SSW
Landsat 7 3.6 18:19:20 56° SE 18:20:17 76° ENE 18:25:01 10° N
Ariane Rocket 4.1 18:22:21 28° NE 18:22:21 28° NE 18:25:53 10° N
SL-16 R/B 2.2 18:17:20 10° S 18:22:48 53° ESE 18:28:19 10° NE
Cosmos 2292 Rocket 4.0 18:17:43 10° S 18:23:44 80° W 18:28:14 10° N
Cosmos 1437 Rocket 3.0 18:24:58 60° N 18:24:58 60° N 18:28:07 10° N
OBJECT-B 2.8 18:25:24 23° WNW 18:25:24 23° WNW 18:27:03 10° NW
Meteor 1-22 Rocket 4.0 18:20:30 10° S 18:25:49 77° E 18:31:23 10° NNE
SL-4 R/B 2.2 18:22:17 10° WNW 18:26:50 72° NNE 18:27:05 69° NE
Cosmos 1570 Rocket 3.9 18:21:54 10° NNW 18:27:12 84° ENE 18:28:15 58° SSE
MOS 1 4.4 18:27:45 52° E 18:28:14 54° ENE 18:33:45 10° N
H-2A R/B 3.2 18:32:30 42° N 18:32:30 42° N 18:35:13 10° N
Cosmos 1844 Rocket 3.1 18:28:55 10° NNW 18:34:20 45° NE 18:34:20 45° NE
Cosmos 2278 Rocket 4.5 18:33:46 10° NNE 18:35:02 11° NNE 18:35:37 11° NE
Cosmos 1092 Rocket 3.9 18:30:12 10° S 18:36:32 87° W 18:42:52 10° N
ISS -2.0 18:34:39 10° WNW 18:36:41 32° W 18:36:41 32° W
Cosmos 1025 Rocket 3.5 18:34:47 10° N 18:38:03 50° N 18:38:03 50° N
Resurs 01 Rocket 2.3 18:42:03 44° N 18:42:03 44° N 18:45:13 10° N
Terra 4.2 18:44:56 12° NNE 18:44:56 12° NNE 18:45:30 10° NNE
Meteor 2-5 Rocket 3.9 18:38:43 10° NNW 18:44:14 66° W 18:46:13 39° SSW
Cosmos 1975 Rocket 3.4 18:39:58 10° N 18:43:37 60° NNW 18:43:37 60° NNW
USA 215 4.4 18:44:25 20° NE 18:48:10 35° N 18:53:57 10° WNW
Cosmos 2208 Rocket 4.0 18:43:48 10° NNW 18:49:11 82° WSW 18:49:30 77° SSW
USA 186 4.2 18:49:21 20° W 18:49:33 21° W 18:52:06 10° NW
Cosmos 2263 Rocket 3.6 18:46:02 10° NW 18:51:06 34° WSW 18:54:19 19° SSW
Cosmos 1844 4.1 18:47:07 10° NNW 18:51:49 48° NNE 18:51:49 48° NNE
USA 81 4.2 18:47:26 10° N 18:52:42 69° W 18:53:33 58° SW
Okean-O 4.3 19:00:42 26° SW 19:01:56 30° W 19:05:51 10° NW
S3M 4.5 19:01:23 10° N 19:06:13 47° NE 19:06:13 47° NE
IRS-1A Rocket 4.4 19:14:07 73° NW 19:14:07 73° NW 19:19:26 10° NNW
USA 281 3.7 19:20:06 46° NNE 19:20:06 46° NNE 19:25:32 10° NNW
SPOT 1/Viking Rocket 4.3 19:22:41 50° WNW 19:22:41 50° WNW 19:26:54 10° NNW
Cosmos 2322 Rocket 4.1 19:43:56 21° NNE 19:43:56 21° NNE 19:45:46 10° NNE
ATLAS 2AS CENTAUR R/B 4.3 19:59:08 10° NNW 20:05:00 25° NNE 20:05:21 25° NNE
SL-16 R/B 3.9 20:02:18 10° WSW 20:07:12 29° NW 20:12:08 10° N
Cosmos 2278 Rocket 4.3 20:15:23 10° NNW 20:17:26 21° N 20:17:26 21° N
USA 215 4.4 20:31:46 38° NNW 20:31:46 38° NNW 20:36:25 10° NW
